Find Starlink 31018

NORAD ID: 58635 Int'l Des: 2023-203 Owner: SPXS Country: US Constellation: starlink operational
LEOCIRCULAR

Current View

Loading 3D Globe...

About Starlink 31018

Starlink 31018 (NORAD 58635) is a starlink constellation satellite (v2 mini) launched Dec 23, 2023 by SPXS of US. It operates in LEO, CIRCULAR orbit with a mass of 730.00 kg.

About Starlink 31018

Description loading...

Upcoming Passes

Passes for default location (London). Set your location on the main map for personalized predictions.

Altitude History

Loading altitude history...

Two-Line Element Set

1 58635U 23203T 26177.46456545 -.00012622 00000-0 -44916-3 0 9991
2 58635 43.0003 173.0910 0001605 271.8598 88.2070 15.27633795141427
Epoch: Jun 26, 2026 • Age: 21 hours

Current Status

Altitude 484.2 km
Velocity 7.62 km/s
Sub-Earth Point -8.81°S, 43.7°W
Launch Date Dec 23, 2023
Age 2.5 years
Type internet

Technical Details

Classification Payload
Mass 730.00 kg
Dry Mass 700.00 kg
Total Mass 730.00 kg
Length 0.30 m
Diameter 4.10 m
Span 29.00 m
Shape Box + pan
Manufacturer SPXS
Bus Type Starlink V2M
Phase Status In Orbit
Owner/State SPXS/US

Most Searched